12-03-2023, 00:00:07,    188,    0.0,    3.7,   0.00,   0.00, 1003.4,    0.1, -999.0
12-03-2023, 00:00:17,    187,    0.1,    3.7,   0.00,   0.00, 1003.5,    0.1, -999.0
12-03-2023, 00:00:27,    188,    0.0,    3.7,   0.00,   0.00, 1003.4,    0.0, -999.0
12-03-2023, 00:00:37,    194,    0.4,    3.8,   0.00,   0.00, 1003.5,    0.1, -999.0
12-03-2023, 00:00:47,    193,    0.0,    3.7,   0.00,   0.00, 1003.4,    0.0, -999.0
12-03-2023, 00:00:57,    193,    0.0,    3.7,   0.00,   0.00, 1003.4,    0.0, -999.0
12-03-2023, 00:01:07,    193,    0.0,    3.7,   0.00,   0.00, 1003.4,    0.1, -999.0
12-03-2023, 00:01:17,    193,    0.0,    3.6,   0.00,   0.00, 1003.4,    0.0, -999.0
12-03-2023, 00:01:27,    192,    0.0,    3.7,   0.00,   0.00, 1003.4,    0.0, -999.0
12-03-2023, 00:01:37,    198,    0.2,    3.8,   0.00,   0.00, 1003.5,    0.3, -999.0
12-03-2023, 00:01:47,    194,    0.4,    3.9,   0.00,   0.00, 1003.5,    0.0, -999.0
12-03-2023, 00:01:57,    194,    0.0,    3.8,   0.00,   0.00, 1003.4,    0.0, -999.0
12-03-2023, 00:02:07,    195,    0.0,    3.8,   0.00,   0.00, 1003.4,    0.1, -999.0
12-03-2023, 00:02:17,    195,    0.0,    3.8,   0.00,   0.00, 1003.4,    0.0, -999.0
12-03-2023, 00:02:27,    195,    0.5,    3.9,   0.00,   0.00, 1003.5,    0.0, -999.0
12-03-2023, 00:02:37,    194,    0.0,    3.8,   0.00,   0.00, 1003.4,    0.0, -999.0
12-03-2023, 00:02:47,    195,    0.0,    3.8,   0.00,   0.00, 1003.4,    0.1, -999.0
12-03-2023, 00:02:57,    194,    0.0,    3.7,   0.00,   0.00, 1003.4,    0.0, -999.0
12-03-2023, 00:03:07,    195,    0.0,    3.8,   0.00,   0.00, 1003.4,    0.0, -999.0
12-03-2023, 00:03:17,    195,    0.8,    3.9,   0.00,   0.00, 1003.6,    0.1, -999.0
12-03-2023, 00:03:27,    196,    0.0,    3.9,   0.00,   0.00, 1003.5,    0.0, -999.0
12-03-2023, 00:03:37,    195,    0.0,    3.8,   0.00,   0.00, 1003.4,    0.0, -999.0
12-03-2023, 00:03:47,    196,    0.0,    3.8,   0.00,   0.00, 1003.4,    0.0, -999.0
12-03-2023, 00:03:57,    195,    0.0,    3.8,   0.00,   0.00, 1003.4,    0.1, -999.0
12-03-2023, 00:04:07,    195,    0.0,    4.0,   0.00,   0.00, 1003.4,    0.0, -999.0
12-03-2023, 00:04:17,    201,    0.0,    3.8,   0.00,   0.00, 1003.4,    0.0, -999.0
12-03-2023, 00:04:27,    202,    0.9,    3.9,   0.00,   0.00, 1003.5,    0.0, -999.0
12-03-2023, 00:04:37,    199,    0.5,    4.0,   0.00,   0.00, 1003.5,    0.1, -999.0
12-03-2023, 00:04:47,    198,    0.0,    3.9,   0.00,   0.00, 1003.4,    0.0, -999.0
12-03-2023, 00:04:57,    177,    0.5,    4.0,   0.00,   0.00, 1003.5,    0.1, -999.0
12-03-2023, 00:05:07,    136,    0.8,    4.0,   0.00,   0.00, 1003.5,    0.0, -999.0
12-03-2023, 00:05:17,    137,    0.0,    3.9,   0.00,   0.00, 1003.4,    0.0, -999.0
12-03-2023, 00:05:27,    169,    0.0,    3.9,   0.00,   0.00, 1003.4,    0.0, -999.0
12-03-2023, 00:05:37,    213,    0.4,    4.0,   0.00,   0.00, 1003.5,    0.0, -999.0
12-03-2023, 00:05:47,    213,    0.1,    4.0,   0.00,   0.00, 1003.5,    0.0, -999.0
12-03-2023, 00:05:57,    213,    0.0,    4.0,   0.00,   0.00, 1003.4,    0.0, -999.0
12-03-2023, 00:06:07,    213,    0.4,    4.0,   0.00,   0.00, 1003.5,    0.2, -999.0
12-03-2023, 00:06:17,    166,    0.7,    4.0,   0.00,   0.00, 1003.5,    0.1, -999.0
12-03-2023, 00:06:27,    221,    0.5,    4.1,   0.00,   0.00, 1003.5,    0.0, -999.0
12-03-2023, 00:06:36,    204,    0.8,    4.1,   0.00,   0.00, 1003.5,    0.1, -999.0
12-03-2023, 00:06:47,    201,    0.8,    4.1,   0.00,   0.00, 1003.5,    0.1, -999.0
12-03-2023, 00:06:57,    219,    1.6,    4.1,   0.00,   0.00, 1003.5,    0.0, -999.0
12-03-2023, 00:07:07,    219,    0.8,    4.1,   0.00,   0.00, 1003.5,    0.1, -999.0
12-03-2023, 00:07:16,    155,    0.2,    4.1,   0.00,   0.00, 1003.5,    0.0, -999.0
12-03-2023, 00:07:27,    203,    0.5,    4.1,   0.00,   0.00, 1003.5,    0.1, -999.0
12-03-2023, 00:07:37,    202,    0.3,    4.1,   0.00,   0.00, 1003.5,    0.3, -999.0
12-03-2023, 00:07:46,    235,    0.3,    4.1,   0.00,   0.00, 1003.5,    0.0, -999.0
12-03-2023, 00:07:56,    174,    0.6,    4.1,   0.00,   0.00, 1003.5,    0.0, -999.0
12-03-2023, 00:08:07,    178,    0.1,    4.2,   0.00,   0.00, 1003.4,    0.0, -999.0
12-03-2023, 00:08:16,    184,    0.1,    4.1,   0.00,   0.00, 1003.5,    0.0, -999.0
12-03-2023, 00:08:26,    214,    0.6,    4.2,   0.00,   0.00, 1003.5,    0.0, -999.0
12-03-2023, 00:08:37,    212,    0.4,    4.2,   0.00,   0.00, 1003.5,    0.0, -999.0
12-03-2023, 00:08:47,    211,    0.0,    4.1,   0.00,   0.00, 1003.4,    0.0, -999.0
12-03-2023, 00:08:56,    212,    0.3,    4.2,   0.00,   0.00, 1003.5,    0.1, -999.0
12-03-2023, 00:09:06,    209,    0.3,    4.1,   0.00,   0.00, 1003.5,    0.0, -999.0
12-03-2023, 00:09:17,    209,    0.4,    4.3,   0.00,   0.00, 1003.5,    0.0, -999.0
12-03-2023, 00:09:26,    209,    0.3,    4.2,   0.00,   0.00, 1003.5,    0.0, -999.0
12-03-2023, 00:09:36,    198,    0.5,    4.2,   0.00,   0.00, 1003.5,    0.1, -999.0
12-03-2023, 00:09:46,    199,    0.0,    4.2,   0.00,   0.00, 1003.4,    0.0, -999.0
12-03-2023, 00:09:56,    199,    0.0,    4.2,   0.00,   0.00, 1003.4,    0.0, -999.0
12-03-2023, 00:10:06,    199,    0.3,    4.1,   0.00,   0.00, 1003.5,    0.0, -999.0
12-03-2023, 00:10:16,    198,    0.2,    4.2,   0.00,   0.00, 1003.5,    0.0, -999.0
12-03-2023, 00:10:26,    199,    0.5,    4.2,   0.00,   0.00, 1003.5,    0.0, -999.0
12-03-2023, 00:10:36,    199,    0.7,    4.3,   0.00,   0.00, 1003.5,    0.2, -999.0
12-03-2023, 00:10:46,    208,    1.2,    4.3,   0.00,   0.00, 1003.5,    0.1, -999.0
12-03-2023, 00:10:56,    208,    0.2,    4.3,   0.00,   0.00, 1003.5,    0.0, -999.0
12-03-2023, 00:11:06,    208,    0.0,    4.1,   0.00,   0.00, 1003.4,    0.0, -999.0
12-03-2023, 00:11:16,    207,    0.0,    4.2,   0.00,   0.00, 1003.4,    0.0, -999.0
12-03-2023, 00:11:26,    208,    0.0,    4.1,   0.00,   0.00, 1003.4,    0.0, -999.0
12-03-2023, 00:11:36,    182,    0.6,    4.2,   0.00,   0.00, 1003.5,    0.0, -999.0
12-03-2023, 00:11:46,    183,    0.1,    4.2,   0.00,   0.00, 1003.4,    0.0, -999.0
12-03-2023, 00:11:56,    187,    0.5,    4.3,   0.00,   0.00, 1003.5,    0.1, -999.0
12-03-2023, 00:12:06,    183,    0.7,    4.3,   0.00,   0.00, 1003.5,    0.0, -999.0
12-03-2023, 00:12:16,    196,    0.8,    4.3,   0.00,   0.00, 1003.5,    0.0, -999.0
12-03-2023, 00:12:26,    197,    0.5,    4.3,   0.00,   0.00, 1003.5,    0.1, -999.0
12-03-2023, 00:12:36,    197,    0.2,    4.3,   0.00,   0.00, 1003.5,    0.1, -999.0
12-03-2023, 00:12:46,    208,    0.5,    4.3,   0.00,   0.00, 1003.5,    0.0, -999.0
12-03-2023, 00:12:56,    213,    0.7,    4.3,   0.00,   0.00, 1003.5,    0.0, -999.0
12-03-2023, 00:13:06,    205,    0.4,    4.3,   0.00,   0.00, 1003.5,    0.0, -999.0
12-03-2023, 00:13:16,    207,    0.4,    4.3,   0.00,   0.00, 1003.5,    0.1, -999.0
12-03-2023, 00:13:26,    207,    0.6,    4.4,   0.00,   0.00, 1003.5,    0.1, -999.0
12-03-2023, 00:13:36,    198,    0.6,    4.4,   0.00,   0.00, 1003.5,    0.0, -999.0
12-03-2023, 00:13:46,    180,    0.7,    4.4,   0.00,   0.00, 1003.5,    0.0, -999.0
12-03-2023, 00:13:56,    190,    1.3,    4.4,   0.00,   0.00, 1003.5,    0.0, -999.0
12-03-2023, 00:14:06,    222,    0.4,    4.4,   0.00,   0.00, 1003.5,    0.1, -999.0
12-03-2023, 00:14:16,    206,    1.5,    4.4,   0.00,   0.00, 1003.5,    0.0, -999.0
12-03-2023, 00:14:26,    227,    0.9,    4.4,   0.00,   0.00, 1003.5,    0.1, -999.0
12-03-2023, 00:14:36,    199,    0.3,    4.4,   0.00,   0.00, 1003.5,    0.0, -999.0
12-03-2023, 00:14:46,    200,    0.1,    4.4,   0.00,   0.00, 1003.4,    0.1, -999.0
12-03-2023, 00:14:56,    197,    0.9,    4.3,   0.00,   0.00, 1003.5,    0.2, -999.0
12-03-2023, 00:15:06,    199,    0.3,    4.4,   0.00,   0.00, 1003.5,    0.0, -999.0
12-03-2023, 00:15:16,    199,    0.0,    4.3,   0.00,   0.00, 1003.4,    0.0, -999.0
12-03-2023, 00:15:26,    192,    1.1,    4.5,   0.00,   0.00, 1003.5,    0.0, -999.0
12-03-2023, 00:15:35,    188,    1.0,    4.5,   0.00,   0.00, 1003.5,    0.0, -999.0
12-03-2023, 00:15:46,    217,    0.7,    4.4,   0.00,   0.00, 1003.5,    0.1, -999.0
12-03-2023, 00:15:56,    201,    1.6,    4.4,   0.00,   0.00, 1003.5,    0.1, -999.0
12-03-2023, 00:16:05,    213,    0.4,    4.4,   0.00,   0.00, 1003.5,    0.1, -999.0
12-03-2023, 00:16:15,    211,    0.2,    4.4,   0.00,   0.00, 1003.4,    0.0, -999.0
12-03-2023, 00:16:26,    201,    1.1,    4.5,   0.00,   0.00, 1003.5,    0.0, -999.0
12-03-2023, 00:16:36,    201,    0.2,    4.4,   0.00,   0.00, 1003.4,    0.0, -999.0
12-03-2023, 00:16:45,    201,    0.0,    4.4,   0.00,   0.00, 1003.4,    0.0, -999.0
12-03-2023, 00:16:55,    202,    0.2,    4.4,   0.00,   0.00, 1003.4,    0.1, -999.0
12-03-2023, 00:17:06,    210,    0.8,    4.5,   0.00,   0.00, 1003.5,    0.1, -999.0
12-03-2023, 00:17:15,    264,    1.0,    4.4,   0.00,   0.00, 1003.5,    0.1, -999.0
12-03-2023, 00:17:25,    224,    0.5,    4.4,   0.00,   0.00, 1003.5,    0.0, -999.0
12-03-2023, 00:17:36,    218,    0.3,    4.5,   0.00,   0.00, 1003.5,    0.0, -999.0
12-03-2023, 00:17:46,    192,    1.1,    4.5,   0.00,   0.00, 1003.5,    0.1, -999.0
12-03-2023, 00:17:55,    194,    1.2,    4.6,   0.00,   0.00, 1003.5,    0.1, -999.0
12-03-2023, 00:18:05,    176,    0.6,    4.6,   0.00,   0.00, 1003.5,    0.1, -999.0
12-03-2023, 00:18:16,    184,    0.5,    4.6,   0.00,   0.00, 1003.5,    0.0, -999.0
12-03-2023, 00:18:25,    214,    0.9,    4.5,   0.00,   0.00, 1003.4,    0.1, -999.0
12-03-2023, 00:18:35,    186,    1.4,    4.6,   0.00,   0.00, 1003.5,    0.1, -999.0
12-03-2023, 00:18:45,    163,    1.0,    4.6,   0.00,   0.00, 1003.5,    0.1, -999.0
12-03-2023, 00:18:55,    164,    0.0,    4.5,   0.00,   0.00, 1003.3,    0.0, -999.0
12-03-2023, 00:19:05,    166,    0.0,    4.4,   0.00,   0.00, 1003.3,    0.0, -999.0
12-03-2023, 00:19:15,    176,    0.0,    4.5,   0.00,   0.00, 1003.3,    0.0, -999.0
12-03-2023, 00:19:25,    176,    0.0,    4.6,   0.00,   0.00, 1003.3,    0.1, -999.0
12-03-2023, 00:19:35,    176,    0.0,    4.5,   0.00,   0.00, 1003.4,    0.0, -999.0
12-03-2023, 00:19:45,    209,    0.0,    4.5,   0.00,   0.00, 1003.3,    0.0, -999.0
12-03-2023, 00:19:55,    178,    2.3,    4.6,   0.00,   0.00, 1003.5,    0.1, -999.0
12-03-2023, 00:20:05,    187,    0.7,    4.6,   0.00,   0.00, 1003.5,    0.0, -999.0
12-03-2023, 00:20:15,    204,    2.7,    4.6,   0.00,   0.00, 1003.5,    0.0, -999.0
12-03-2023, 00:20:25,    192,    2.4,    4.6,   0.00,   0.00, 1003.5,    0.0, -999.0
12-03-2023, 00:20:35,    207,    0.9,    4.7,   0.00,   0.00, 1003.5,    0.0, -999.0
12-03-2023, 00:20:45,    206,    0.6,    4.7,   0.00,   0.00, 1003.5,    0.0, -999.0
12-03-2023, 00:20:55,    189,    1.0,    4.7,   0.00,   0.00, 1003.5,    0.0, -999.0
12-03-2023, 00:21:05,    192,    0.4,    4.7,   0.00,   0.00, 1003.4,    0.1, -999.0
12-03-2023, 00:21:15,    174,    0.4,    4.7,   0.00,   0.00, 1003.5,    0.1, -999.0
12-03-2023, 00:21:25,    174,    0.0,    4.7,   0.00,   0.00, 1003.4,    0.1, -999.0
12-03-2023, 00:21:35,    210,    0.4,    4.7,   0.00,   0.00, 1003.5,    0.0, -999.0
12-03-2023, 00:21:45,    220,    1.3,    4.8,   0.00,   0.00, 1003.5,    0.1, -999.0
12-03-2023, 00:21:55,    220,    0.2,    4.7,   0.00,   0.00, 1003.5,    0.1, -999.0
12-03-2023, 00:22:05,    198,    0.1,    4.7,   0.00,   0.00, 1003.4,    0.1, -999.0
12-03-2023, 00:22:15,    199,    0.4,    4.7,   0.00,   0.00, 1003.5,    0.0, -999.0
12-03-2023, 00:22:25,    216,    0.1,    4.7,   0.00,   0.00, 1003.4,    0.0, -999.0
12-03-2023, 00:22:35,    188,    0.8,    4.7,   0.00,   0.00, 1003.5,    0.1, -999.0
12-03-2023, 00:22:45,    188,    0.0,    4.7,   0.00,   0.00, 1003.4,    0.0, -999.0
12-03-2023, 00:22:55,    199,    0.5,    4.7,   0.00,   0.00, 1003.4,    0.1, -999.0
12-03-2023, 00:23:05,    199,    0.4,    4.7,   0.00,   0.00, 1003.4,    0.0, -999.0
12-03-2023, 00:23:15,    230,    0.2,    4.7,   0.00,   0.00, 1003.4,    0.1, -999.0
12-03-2023, 00:23:25,    206,    1.9,    4.8,   0.00,   0.00, 1003.5,    0.1, -999.0
12-03-2023, 00:23:35,    205,    0.7,    4.8,   0.00,   0.00, 1003.5,    0.1, -999.0
12-03-2023, 00:23:45,    205,    0.0,    4.8,   0.00,   0.00, 1003.4,    0.0, -999.0
12-03-2023, 00:23:55,    205,    0.0,    4.8,   0.00,   0.00, 1003.4,    0.0, -999.0
12-03-2023, 00:24:05,    208,    0.1,    4.7,   0.00,   0.00, 1003.4,    0.0, -999.0
12-03-2023, 00:24:15,    208,    0.0,    4.8,   0.00,   0.00, 1003.4,    0.0, -999.0
12-03-2023, 00:24:25,    208,    0.0,    4.8,   0.00,   0.00, 1003.4,    0.0, -999.0
12-03-2023, 00:24:34,    194,    0.2,    4.9,   0.00,   0.00, 1003.5,    0.1, -999.0
12-03-2023, 00:24:45,    197,    0.0,    4.8,   0.00,   0.00, 1003.4,    0.0, -999.0
12-03-2023, 00:24:55,    177,    0.3,    4.8,   0.00,   0.00, 1003.4,    0.1, -999.0
12-03-2023, 00:25:05,    222,    0.6,    4.8,   0.00,   0.00, 1003.5,    0.1, -999.0
12-03-2023, 00:25:14,    216,    0.8,    4.9,   0.00,   0.00, 1003.5,    0.0, -999.0
12-03-2023, 00:25:25,    210,    1.0,    4.9,   0.00,   0.00, 1003.5,    0.0, -999.0
12-03-2023, 00:25:35,    217,    0.9,    4.9,   0.00,   0.00, 1003.5,    0.0, -999.0
12-03-2023, 00:25:44,    217,    0.0,    4.9,   0.00,   0.00, 1003.4,    0.0, -999.0
12-03-2023, 00:25:55,    197,    0.0,    4.8,   0.00,   0.00, 1003.4,    0.0, -999.0
12-03-2023, 00:26:05,    198,    0.2,    4.9,   0.00,   0.00, 1003.4,    0.0, -999.0
12-03-2023, 00:26:15,    194,    1.3,    5.0,   0.00,   0.00, 1003.5,    0.1, -999.0
12-03-2023, 00:26:24,    214,    1.1,    5.0,   0.00,   0.00, 1003.5,    0.1, -999.0
12-03-2023, 00:26:35,    209,    0.7,    4.9,   0.00,   0.00, 1003.5,    0.0, -999.0
12-03-2023, 00:26:45,    204,    0.4,    5.0,   0.00,   0.00, 1003.5,    0.1, -999.0
12-03-2023, 00:26:54,    243,    1.7,    5.1,   0.00,   0.00, 1003.5,    0.2, -999.0
12-03-2023, 00:27:04,    192,    0.6,    5.0,   0.00,   0.00, 1003.5,    0.0, -999.0
12-03-2023, 00:27:15,    242,    0.9,    5.0,   0.00,   0.00, 1003.5,    0.0, -999.0
12-03-2023, 00:27:24,    222,    1.7,    5.1,   0.00,   0.00, 1003.5,    0.0, -999.0
12-03-2023, 00:27:34,    213,    1.6,    5.1,   0.00,   0.00, 1003.5,    0.0, -999.0
12-03-2023, 00:27:44,    166,    0.9,    5.1,   0.00,   0.00, 1003.5,    0.1, -999.0
12-03-2023, 00:27:55,    235,    0.6,    5.0,   0.00,   0.00, 1003.5,    0.0, -999.0
12-03-2023, 00:28:04,    219,    1.9,    5.1,   0.00,   0.00, 1003.5,    0.0, -999.0
12-03-2023, 00:28:14,    181,    1.0,    5.1,   0.00,   0.00, 1003.5,    0.0, -999.0
12-03-2023, 00:28:24,    213,    0.0,    5.1,   0.00,   0.00, 1003.4,    0.0, -999.0
12-03-2023, 00:28:34,    185,    0.4,    5.1,   0.00,   0.00, 1003.5,    0.1, -999.0
12-03-2023, 00:28:44,    200,    0.9,    5.2,   0.00,   0.00, 1003.5,    0.1, -999.0
12-03-2023, 00:28:54,    205,    0.8,    5.2,   0.00,   0.00, 1003.5,    0.0, -999.0
12-03-2023, 00:29:04,    190,    2.1,    5.1,   0.00,   0.00, 1003.5,    0.0, -999.0
12-03-2023, 00:29:14,    203,    1.7,    5.2,   0.00,   0.00, 1003.4,    0.1, -999.0
12-03-2023, 00:29:24,    194,    2.2,    5.1,   0.00,   0.00, 1003.5,    0.1, -999.0
12-03-2023, 00:29:34,    196,    0.1,    5.2,   0.00,   0.00, 1003.4,    0.0, -999.0
12-03-2023, 00:29:44,    195,    0.0,    5.1,   0.00,   0.00, 1003.3,    0.1, -999.0
12-03-2023, 00:29:54,    196,    1.0,    5.1,   0.00,   0.00, 1003.4,    0.0, -999.0
12-03-2023, 00:30:04,    206,    0.7,    5.2,   0.00,   0.00, 1003.4,    0.0, -999.0
12-03-2023, 00:30:14,    206,    0.7,    5.1,   0.00,   0.00, 1003.4,    0.0, -999.0
12-03-2023, 00:30:24,    165,    0.8,    5.1,   0.00,   0.00, 1003.4,    0.0, -999.0
12-03-2023, 00:30:34,    208,    1.8,    5.2,   0.00,   0.00, 1003.4,    0.0, -999.0
12-03-2023, 00:30:44,    179,    0.9,    5.2,   0.00,   0.00, 1003.4,    0.2, -999.0
12-03-2023, 00:30:54,    200,    5.6,    5.1,   0.00,   0.00, 1003.4,    0.0, -999.0
12-03-2023, 00:31:04,    194,    2.0,    5.3,   0.00,   0.00, 1003.5,    0.0, -999.0
12-03-2023, 00:31:14,    196,    2.4,    5.3,   0.00,   0.00, 1003.4,    0.1, -999.0
12-03-2023, 00:31:24,    195,    0.3,    5.2,   0.00,   0.00, 1003.4,    0.0, -999.0
12-03-2023, 00:31:34,    193,    1.6,    5.3,   0.00,   0.00, 1003.4,    0.1, -999.0
12-03-2023, 00:31:44,    232,    2.7,    5.3,   0.00,   0.00, 1003.4,    0.2, -999.0
12-03-2023, 00:31:54,    203,    2.6,    5.3,   0.00,   0.00, 1003.4,    0.1, -999.0
12-03-2023, 00:32:04,    192,    1.1,    5.3,   0.00,   0.00, 1003.4,    0.1, -999.0
12-03-2023, 00:32:14,    168,    2.3,    5.3,   0.00,   0.00, 1003.5,    0.0, -999.0
12-03-2023, 00:32:24,    168,    0.3,    5.2,   0.00,   0.00, 1003.4,    0.0, -999.0
12-03-2023, 00:32:34,    225,    0.4,    5.1,   0.00,   0.00, 1003.3,    0.0, -999.0
12-03-2023, 00:32:44,    182,    2.4,    5.3,   0.00,   0.00, 1003.5,    0.0, -999.0
12-03-2023, 00:32:54,    184,    2.5,    5.3,   0.00,   0.00, 1003.4,    0.1, -999.0
12-03-2023, 00:33:04,    154,    0.9,    5.5,   0.00,   0.00, 1003.4,    0.1, -999.0
12-03-2023, 00:33:14,    254,    0.3,    5.1,   0.00,   0.00, 1003.3,    0.0, -999.0
12-03-2023, 00:33:24,    197,    0.5,    5.2,   0.00,   0.00, 1003.4,    0.1, -999.0
12-03-2023, 00:33:34,    194,    0.5,    5.2,   0.00,   0.00, 1003.4,    0.1, -999.0
12-03-2023, 00:33:44,    209,    1.5,    5.3,   0.00,   0.00, 1003.4,    0.0, -999.0
12-03-2023, 00:33:54,    204,    0.4,    5.3,   0.00,   0.00, 1003.4,    0.0, -999.0
12-03-2023, 00:34:03,    188,    0.7,    5.3,   0.00,   0.00, 1003.4,    0.0, -999.0
12-03-2023, 00:34:14,    192,    1.2,    5.3,   0.00,   0.00, 1003.4,    0.0, -999.0
12-03-2023, 00:34:24,    208,    0.3,    5.3,   0.00,   0.00, 1003.3,    0.1, -999.0
12-03-2023, 00:34:34,    205,    0.1,    5.3,   0.00,   0.00, 1003.4,    0.0, -999.0
12-03-2023, 00:34:43,    216,    1.0,    5.3,   0.00,   0.00, 1003.5,    0.0, -999.0
12-03-2023, 00:34:54,    219,    3.1,    5.4,   0.00,   0.00, 1003.4,    0.0, -999.0
12-03-2023, 00:35:04,    232,    2.9,    5.3,   0.00,   0.00, 1003.4,    0.0, -999.0
12-03-2023, 00:35:13,    203,    0.4,    5.3,   0.00,   0.00, 1003.3,    0.0, -999.0
12-03-2023, 00:35:23,    228,    0.4,    5.2,   0.00,   0.00, 1003.4,    0.0, -999.0
12-03-2023, 00:35:34,    253,    1.8,    5.3,   0.00,   0.00, 1003.4,    0.1, -999.0
12-03-2023, 00:35:44,    213,    0.9,    5.4,   0.00,   0.00, 1003.4,    0.0, -999.0
12-03-2023, 00:35:53,    211,    0.0,    5.3,   0.00,   0.00, 1003.3,    0.0, -999.0
12-03-2023, 00:36:04,    205,    2.5,    5.3,   0.00,   0.00, 1003.4,    0.1, -999.0
12-03-2023, 00:36:14,    232,    1.0,    5.4,   0.00,   0.00, 1003.4,    0.1, -999.0
12-03-2023, 00:36:23,    159,    2.0,    5.4,   0.00,   0.00, 1003.4,    0.0, -999.0
12-03-2023, 00:36:33,    211,    1.0,    5.4,   0.00,   0.00, 1003.5,    0.0, -999.0
12-03-2023, 00:36:44,    236,    1.1,    5.4,   0.00,   0.00, 1003.4,    0.0, -999.0
12-03-2023, 00:36:53,    227,    2.4,    5.3,   0.00,   0.00, 1003.4,    0.1, -999.0
12-03-2023, 00:37:03,    217,    2.5,    5.3,   0.00,   0.00, 1003.5,    0.0, -999.0
12-03-2023, 00:37:13,    199,    1.3,    5.3,   0.00,   0.00, 1003.4,    0.0, -999.0
12-03-2023, 00:37:24,    201,    0.4,    5.5,   0.00,   0.00, 1003.3,    0.1, -999.0
12-03-2023, 00:37:33,    253,    0.7,    5.4,   0.00,   0.00, 1003.4,    0.0, -999.0
12-03-2023, 00:37:43,    193,    0.7,    5.4,   0.00,   0.00, 1003.5,    0.1, -999.0
12-03-2023, 00:37:53,    195,    0.0,    5.4,   0.00,   0.00, 1003.3,    0.0, -999.0
12-03-2023, 00:38:03,    209,    0.7,    5.4,   0.00,   0.00, 1003.5,    0.0, -999.0
12-03-2023, 00:38:13,    216,    2.6,    5.5,   0.00,   0.00, 1003.4,    0.0, -999.0
12-03-2023, 00:38:23,    220,    2.5,    5.4,   0.00,   0.00, 1003.4,    0.1, -999.0
12-03-2023, 00:38:33,    219,    1.5,    5.5,   0.00,   0.00, 1003.4,    0.1, -999.0
12-03-2023, 00:38:43,    207,    1.3,    5.4,   0.00,   0.00, 1003.4,    0.0, -999.0
12-03-2023, 00:38:53,    215,    1.9,    5.5,   0.00,   0.00, 1003.4,    0.1, -999.0
12-03-2023, 00:39:03,    197,    1.2,    5.5,   0.00,   0.00, 1003.5,    0.1, -999.0
12-03-2023, 00:39:13,    230,    1.3,    5.5,   0.00,   0.00, 1003.4,    0.1, -999.0
12-03-2023, 00:39:23,    228,    0.9,    5.4,   0.00,   0.00, 1003.5,    0.0, -999.0
12-03-2023, 00:39:33,    213,    0.0,    5.4,   0.00,   0.00, 1003.3,    0.0, -999.0
12-03-2023, 00:39:43,    226,    0.6,    5.5,   0.00,   0.00, 1003.4,    0.0, -999.0
12-03-2023, 00:39:53,    204,    0.5,    5.5,   0.00,   0.00, 1003.4,    0.0, -999.0
12-03-2023, 00:40:03,    205,    0.1,    5.4,   0.00,   0.00, 1003.4,    0.1, -999.0
12-03-2023, 00:40:13,    207,    0.7,    5.5,   0.00,   0.00, 1003.5,    0.0, -999.0
12-03-2023, 00:40:23,    207,    0.0,    5.4,   0.00,   0.00, 1003.3,    0.0, -999.0
12-03-2023, 00:40:33,    203,    0.1,    5.3,   0.00,   0.00, 1003.4,    0.1, -999.0
12-03-2023, 00:40:43,    233,    2.4,    5.4,   0.00,   0.00, 1003.5,    0.1, -999.0
12-03-2023, 00:40:53,    232,    3.2,    5.5,   0.00,   0.00, 1003.5,    0.0, -999.0
12-03-2023, 00:41:03,    242,    1.8,    5.5,   0.00,   0.00, 1003.5,    0.0, -999.0
12-03-2023, 00:41:13,    242,    0.3,    5.5,   0.00,   0.00, 1003.4,    0.1, -999.0
12-03-2023, 00:41:23,    211,    0.1,    5.4,   0.00,   0.00, 1003.4,    0.0, -999.0
12-03-2023, 00:41:33,    210,    0.0,    5.5,   0.00,   0.00, 1003.3,    0.0, -999.0
12-03-2023, 00:41:43,    211,    0.0,    5.4,   0.00,   0.00, 1003.3,    0.0, -999.0
12-03-2023, 00:41:53,    204,    1.1,    5.5,   0.00,   0.00, 1003.5,    0.1, -999.0
12-03-2023, 00:42:03,    195,    2.6,    5.6,   0.00,   0.00, 1003.5,    0.1, -999.0
12-03-2023, 00:42:13,    245,    1.7,    5.5,   0.00,   0.00, 1003.5,    0.1, -999.0
12-03-2023, 00:42:23,    246,    1.8,    5.6,   0.00,   0.00, 1003.5,    0.1, -999.0
12-03-2023, 00:42:33,    228,    0.5,    5.5,   0.00,   0.00, 1003.4,    0.0, -999.0
12-03-2023, 00:42:43,    212,    1.0,    5.4,   0.00,   0.00, 1003.5,    0.0, -999.0
12-03-2023, 00:42:53,    214,    0.5,    5.5,   0.00,   0.00, 1003.5,    0.1, -999.0
12-03-2023, 00:43:03,    245,    0.7,    5.5,   0.00,   0.00, 1003.5,    0.1, -999.0
12-03-2023, 00:43:13,    219,    0.5,    5.4,   0.00,   0.00, 1003.5,    0.1, -999.0
12-03-2023, 00:43:23,    251,    1.6,    5.5,   0.00,   0.00, 1003.5,    0.1, -999.0
12-03-2023, 00:43:33,    202,    0.3,    5.6,   0.00,   0.00, 1003.5,    0.1, -999.0
12-03-2023, 00:43:43,    182,    0.9,    5.6,   0.00,   0.00, 1003.5,    0.1, -999.0
12-03-2023, 00:43:53,    241,    2.1,    5.6,   0.00,   0.00, 1003.5,    0.0, -999.0
12-03-2023, 00:44:03,    264,    0.4,    5.5,   0.00,   0.00, 1003.5,    0.0, -999.0
12-03-2023, 00:44:12,    263,    0.0,    5.5,   0.00,   0.00, 1003.4,    0.1, -999.0
12-03-2023, 00:44:23,    199,    0.0,    5.5,   0.00,   0.00, 1003.4,    0.0, -999.0
12-03-2023, 00:44:33,    198,    0.0,    5.5,   0.00,   0.00, 1003.4,    0.1, -999.0
12-03-2023, 00:44:42,    200,    0.1,    5.4,   0.00,   0.00, 1003.5,    0.0, -999.0
12-03-2023, 00:44:52,    205,    0.1,    5.5,   0.00,   0.00, 1003.5,    0.1, -999.0
12-03-2023, 00:45:03,    247,    0.8,    5.5,   0.00,   0.00, 1003.5,    0.0, -999.0
12-03-2023, 00:45:13,    192,    0.5,    5.5,   0.00,   0.00, 1003.4,    0.0, -999.0
12-03-2023, 00:45:22,    193,    0.0,    5.5,   0.00,   0.00, 1003.4,    0.0, -999.0
12-03-2023, 00:45:32,    189,    1.1,    5.6,   0.00,   0.00, 1003.5,    0.0, -999.0
12-03-2023, 00:45:43,    257,    0.7,    5.6,   0.00,   0.00, 1003.5,    0.0, -999.0
12-03-2023, 00:45:52,    199,    0.2,    5.5,   0.00,   0.00, 1003.4,    0.1, -999.0
12-03-2023, 00:46:02,    261,    0.6,    5.7,   0.00,   0.00, 1003.5,    0.1, -999.0
12-03-2023, 00:46:12,    217,    0.1,    5.6,   0.00,   0.00, 1003.5,    0.0, -999.0
12-03-2023, 00:46:23,    272,    0.2,    5.5,   0.00,   0.00, 1003.5,    0.1, -999.0
12-03-2023, 00:46:32,    269,    0.0,    5.5,   0.00,   0.00, 1003.5,    0.0, -999.0
12-03-2023, 00:46:42,    230,    0.1,    5.5,   0.00,   0.00, 1003.5,    0.0, -999.0
12-03-2023, 00:46:53,    231,    0.0,    5.5,   0.00,   0.00, 1003.5,    0.0, -999.0